Temp
14 14 13 12 12 12 11 11 11 11 11 11 10 10 10 10 10 9 9 9 8 7 6 5 4 4 4 5 6 8 8 8 9 11 11 12 17 16 15 16 16 16 15
14 13 12 12 12 11 11 11 11 11 11 10 10 10 10 10 9 9 9 9 8 7 6 5 5 5 6 6 8 9 9 9 10 10 12 11 15 16 16 15 15 16 15
14 13 12 12 12 11 11 11 11 10 10 10 10 10 10 9 9 9 9 9 8 7 5 5 6 6 7 7 8 9 9 9 10 11 11 12 16 15 14 15 14 14 14
13 13 12 12 11 11 11 11 10 10 10 10 10 10 9 9 10 10 9 8 8 7 6 6 6 6 7 8 8 9 10 10 10 10 10 12 16 15 14 14 14 14 13
13 13 12 12 11 11 11 10 10 10 10 10 9 9 9 9 9 10 9 9 8 7 7 6 6 6 7 9 10 10 10 10 10 10 10 13 15 14 14 14 14 14 13
13 12 12 12 11 11 11 10 10 10 10 9 9 9 9 9 9 9 9 9 8 8 7 6 6 6 7 8 9 11 11 10 10 11 11 13 15 14 15 14 15 14 13
13 13 12 12 11 11 11 10 10 9 9 9 9 9 9 9 9 9 9 9 9 8 7 7 6 6 7 7 9 11 12 11 11 11 11 14 15 15 15 15 15 15 15
13 12 12 11 11 11 10 10 9 9 9 8 8 8 8 8 8 9 9 9 9 8 7 6 6 6 7 8 9 11 12 12 11 11 11 12 15 15 15 16 16 15 13
12 11 11 11 11 10 9 9 9 9 8 8 8 8 8 8 9 9 9 9 8 8 7 7 6 6 7 8 9 10 11 11 12 12 13 12 14 15 16 16 16 14 13
11 11 11 11 10 9 9 9 9 8 8 8 8 8 8 8 9 9 9 9 8 8 7 7 6 6 7 8 8 10 11 12 12 12 13 12 13 15 17 16 16 15 14
11 11 11 10 10 9 9 9 9 8 8 8 8 8 8 7 7 7 8 8 8 7 7 6 6 6 7 7 9 10 11 12 12 13 14 13 13 14 16 17 16 15 14
11 11 10 10 9 9 9 9 8 8 8 8 7 7 7 6 6 6 7 7 8 6 6 6 5 6 7 9 9 10 11 13 13 12 13 14 14 16 17 17 17 15 15
11 10 10 10 9 9 9 9 8 8 8 7 7 6 5 5 5 5 6 6 6 6 6 6 6 7 7 8 9 10 11 13 13 13 13 14 15 16 17 17 16 15 16
10 10 10 9 9 9 9 8 8 8 6 6 5 5 5 5 5 5 5 5 5 5 5 5 6 7 7 8 9 9 11 12 13 13 14 15 16 16 17 17 15 15 15
10 9 9 9 9 9 8 8 8 7 6 5 5 5 4 4 5 5 5 5 5 5 6 6 6 6 6 7 8 9 9 13 12 13 14 15 16 17 17 17 15 14 15
9 9 9 9 8 8 8 8 7 7 6 6 5 5 5 5 5 5 5 5 5 5 6 6 6 6 6 6 7 8 9 12 13 13 14 16 17 17 17 16 15 15 14
9 8 8 8 7 7 7 7 5 5 5 5 5 5 6 6 6 6 5 5 5 6 6 6 5 5 5 6 6 7 8 9 14 14 15 16 17 17 17 16 15 14 14
8 8 7 7 7 7 6 5 5 5 4 4 5 5 6 6 6 5 5 5 6 7 6 5 5 5 5 5 6 7 8 9 13 14 15 16 17 16 17 16 15 15 14
7 7 7 6 6 6 5 5 5 4 4 4 4 5 5 6 6 5 5 5 5 6 6 6 5 4 4 5 5 6 7 9 12 13 14 16 17 17 17 16 15 14 14
6 6 6 5 5 5 5 5 4 4 4 3 4 4 3 5 5 6 5 5 5 6 6 6 5 5 4 4 5 6 7 9 12 13 13 14 16 16 16 15 15 14 14
5 4 4 4 4 4 4 4 3 3 2 3 3 3 4 5 5 5 5 5 5 6 6 6 5 5 4 4 5 5 7 7 9 13 13 13 15 15 16 15 14 14 13
4 3 3 3 4 3 3 3 3 3 3 3 3 4 4 4 4 5 5 5 5 6 6 6 6 5 4 4 5 5 6 7 8 13 12 13 14 15 15 15 14 13 13
3 3 3 3 3 2 2 2 2 2 2 3 3 3 3 4 4 5 5 5 5 6 6 6 6 6 5 5 5 5 6 6 7 9 13 13 14 14 14 14 13 13 13
3 2 2 2 2 2 1 1 1 2 2 2 3 3 3 3 4 4 5 5 5 6 6 6 6 6 6 5 5 5 6 7 8 10 13 13 14 14 14 13 13 13 12
2 2 2 1 1 1 1 1 1 1 2 2 3 3 3 3 3 4 5 5 5 6 6 6 6 6 6 6 5 6 6 8 8 11 13 14 14 13 13 13 13 13 12
2 2 1 1 1 0 0 0 1 1 1 2 2 2 3 3 3 3 3 4 5 6 6 6 6 6 6 6 5 6 7 8 9 11 12 13 13 13 13 13 12 11 11
Height
787 789 789 790 791 792 791 791 790 788 787 785 782 779 775 771 769 766 762 759 756 753 749 744 736 728 723 718 712 710 711 714 715 705 709 712 709 718 725 732 739 751 760
781 783 784 786 787 787 787 786 785 783 782 780 776 772 769 765 762 759 754 750 747 744 740 734 724 715 706 705 702 702 705 703 704 701 701 704 702 711 714 726 735 746 754
776 777 779 781 782 782 782 782 780 779 777 774 770 767 763 759 754 751 747 743 740 736 731 724 714 706 697 693 693 691 690 691 692 693 692 693 695 703 710 722 731 742 751
770 772 774 776 777 778 777 776 775 773 771 768 765 761 756 752 747 744 740 736 733 728 722 715 707 698 692 685 683 683 682 679 686 688 690 682 684 696 706 716 729 738 747
765 767 769 771 772 772 772 771 769 768 766 763 759 754 750 746 742 737 734 729 725 720 714 706 698 688 681 676 669 670 674 675 677 679 679 678 679 690 699 711 721 733 742
760 763 764 766 767 767 766 765 764 762 760 757 754 750 744 741 737 732 728 723 717 712 708 702 690 681 672 668 661 661 666 667 672 675 673 672 671 683 694 704 714 725 735
755 758 759 761 762 761 760 759 758 757 755 753 748 744 738 735 731 726 722 717 711 706 703 699 687 678 671 665 657 654 658 659 663 664 669 664 670 677 687 699 708 716 721
751 753 755 756 757 756 755 754 753 752 750 746 744 739 734 729 725 720 715 711 706 699 694 689 685 674 666 659 654 647 643 648 649 653 662 669 669 674 678 689 702 714 723
747 750 751 752 752 751 750 750 748 747 745 742 739 734 730 724 719 714 709 706 702 695 687 684 679 672 664 656 651 645 640 639 646 649 653 660 667 671 676 687 696 707 717
745 746 747 747 747 747 746 744 742 741 739 736 732 729 724 720 715 710 706 701 696 691 686 680 673 666 656 651 646 639 636 633 639 646 649 654 660 666 672 678 687 697 707
740 741 742 742 742 742 740 739 737 736 734 731 728 725 721 717 712 707 703 699 694 688 683 674 667 659 651 641 631 624 620 624 628 638 642 647 654 661 670 676 683 687 695
736 737 737 737 738 737 735 734 732 730 728 726 723 720 719 715 710 704 700 696 691 687 681 675 664 655 643 632 625 619 615 619 626 635 637 638 648 657 665 673 680 687 693
731 732 733 733 733 732 731 729 727 725 723 722 720 718 715 711 705 701 696 692 689 682 677 670 659 648 638 630 622 617 614 617 622 628 629 628 642 652 663 671 681 689 697
727 728 728 728 728 728 726 724 723 720 719 720 718 715 711 706 701 696 692 688 683 675 669 661 653 646 637 628 620 613 610 611 613 619 620 630 640 648 657 666 676 686 695
723 725 725 724 724 722 721 720 718 716 716 715 713 711 707 702 697 694 689 683 681 674 667 659 653 643 633 623 617 611 607 607 610 615 617 626 634 644 653 663 673 681 689
720 721 721 720 719 718 716 714 713 711 711 709 708 705 701 699 694 690 686 681 673 670 665 659 652 645 636 629 622 612 604 602 605 611 615 620 629 639 649 661 669 676 686
716 717 717 716 715 713 711 709 708 707 706 703 703 699 696 693 689 686 682 678 671 664 660 659 653 646 638 629 619 613 607 601 600 604 609 617 626 636 646 654 664 674 685
712 713 713 712 710 708 706 705 704 703 700 697 697 695 691 688 685 682 677 672 668 665 661 657 653 645 636 627 619 613 604 598 595 596 605 612 621 631 642 650 659 669 679
710 711 710 708 706 705 703 702 701 699 697 694 692 690 687 684 681 679 676 671 667 662 658 654 651 643 635 628 620 611 604 597 594 594 602 609 618 627 639 647 656 665 675
707 708 706 704 702 701 700 699 697 695 693 691 689 687 685 680 677 674 673 670 664 660 655 651 648 641 633 625 616 607 602 594 589 590 598 608 617 624 634 644 653 662 671
705 704 703 701 698 697 697 696 694 693 690 687 685 683 681 678 674 672 670 666 663 657 654 650 645 641 634 626 619 610 602 597 591 594 598 605 615 624 633 642 651 662 670
702 701 700 697 695 694 694 693 690 689 687 684 681 679 677 675 672 669 667 664 659 656 652 649 643 639 631 625 619 612 607 601 595 595 600 606 613 622 631 640 648 659 668
699 697 695 694 693 692 690 688 686 685 683 680 678 676 673 672 669 666 664 660 657 654 650 645 640 634 629 623 617 612 606 601 594 592 595 602 611 619 627 636 644 654 665
694 694 693 692 691 690 687 684 683 682 679 677 675 673 671 669 667 664 661 657 653 650 648 643 639 635 630 622 614 609 603 596 589 586 590 595 607 616 624 633 640 650 658
691 692 691 690 688 686 683 681 680 678 676 674 672 671 668 666 663 661 659 656 653 650 646 643 639 635 630 623 617 611 604 594 586 581 587 594 602 613 620 628 639 651 658
689 689 689 687 685 683 681 678 677 675 672 670 669 668 666 664 662 659 656 653 650 647 645 643 640 635 631 626 620 613 605 595 585 582 584 591 600 608 617 626 635 645 655
Wind_Speed
17 16 11 11 14 16 17 20 22 23 24 25 27 28 29 28 29 27 29 31 32 31 32 34 40 42 40 36 37 29 22 24 18 26 23 26 37 38 42 42 44 44 42
18 14 12 13 14 16 19 20 22 23 24 27 28 29 30 28 28 30 32 32 27 28 35 37 43 43 36 35 28 28 28 26 28 15 21 22 41 38 46 42 39 42 42
17 14 13 14 14 16 19 21 22 23 26 28 29 27 30 32 32 32 31 30 29 30 32 40 34 37 32 27 25 25 26 33 25 19 23 21 41 41 39 38 34 36 38
17 15 15 14 15 18 20 21 23 23 25 26 28 29 30 33 30 31 32 27 30 31 32 36 40 36 31 24 26 28 29 20 22 20 27 24 39 37 40 36 30 32 31
15 14 15 15 16 18 20 22 24 24 24 26 30 30 28 30 28 26 29 30 33 30 30 35 37 37 42 30 28 25 26 21 16 14 13 22 32 34 35 34 33 31 30
15 15 16 15 15 18 21 23 22 24 23 26 27 28 29 28 27 30 31 33 32 30 27 35 39 38 37 38 32 28 27 26 20 15 18 20 32 36 35 36 35 32 14
17 15 11 14 15 18 19 19 21 22 25 26 27 26 28 30 28 30 31 31 32 31 28 31 36 36 35 33 28 19 31 29 29 23 18 25 32 39 41 36 36 37 27
12 11 12 13 15 16 16 19 22 24 24 25 27 27 27 29 28 29 31 31 28 32 33 33 29 38 39 36 32 23 18 27 27 25 27 22 36 42 47 42 42 34 29
10 12 13 13 12 14 17 21 23 24 25 26 25 26 28 29 28 29 28 28 27 32 33 29 33 35 36 35 34 27 22 24 28 35 29 24 35 44 47 43 38 32 25
12 14 13 10 13 15 19 22 23 23 24 25 25 24 26 25 25 27 27 26 26 27 24 29 30 34 38 38 38 28 22 25 33 31 29 29 30 47 51 46 44 36 33
15 11 10 11 13 16 21 21 22 21 23 26 22 25 21 22 29 30 29 29 26 20 26 29 34 38 42 44 36 25 19 24 25 26 23 24 35 42 45 45 44 44 40
12 11 12 12 16 17 20 22 20 23 21 21 22 18 23 25 24 28 28 27 27 29 28 30 34 41 47 36 29 22 12 25 22 23 15 32 36 40 43 42 42 40 41
9 10 13 15 16 18 20 21 21 18 18 17 17 17 22 24 24 25 26 27 31 31 30 32 38 38 36 31 28 22 11 24 25 15 23 30 38 40 40 38 36 36 33
10 12 13 14 17 19 18 18 20 19 10 14 16 19 23 25 25 23 25 28 29 32 33 34 33 32 30 27 25 21 10 18 23 20 29 34 36 40 38 39 35 37 34
9 12 14 15 16 16 17 18 20 13 9 18 21 21 22 23 22 28 30 30 30 33 37 28 24 28 30 29 28 27 22 18 22 18 30 35 35 38 36 38 38 34 26
10 12 13 15 16 15 17 20 19 14 20 24 24 23 23 25 24 27 28 29 35 35 29 17 20 24 26 25 25 25 22 12 22 24 31 37 37 36 37 37 36 33 32
11 12 13 15 16 19 18 13 15 20 20 19 21 20 21 26 23 25 27 32 32 31 13 15 18 21 25 26 25 23 21 21 22 31 35 39 39 35 41 35 36 33 32
11 13 14 16 15 12 10 16 18 17 15 20 20 20 22 22 21 24 26 28 21 19 17 13 18 21 25 27 27 25 24 20 14 32 37 39 41 39 37 35 35 34 33
11 14 15 14 13 15 14 18 18 19 17 17 21 19 17 19 20 20 21 21 21 18 19 16 16 22 25 28 29 27 23 19 14 33 36 36 39 41 35 35 35 37 38
12 14 13 11 11 14 15 17 17 16 14 17 16 16 21 20 17 18 18 21 22 20 21 20 19 24 25 29 31 31 26 23 5 35 34 33 38 40 38 35 35 37 33
8 8 13 14 14 13 15 15 11 17 17 16 18 20 18 21 17 18 17 20 22 23 21 22 18 24 25 28 29 29 28 24 18 23 30 34 34 35 36 36 35 35 32
9 11 12 13 12 10 13 15 14 16 16 15 18 18 19 18 17 17 17 19 23 23 22 22 18 24 26 27 29 29 27 25 19 26 31 35 35 33 33 34 35 31 32
8 11 11 8 14 13 14 13 14 15 16 15 15 15 17 15 17 15 16 19 21 22 21 20 18 22 28 32 32 28 28 27 29 14 38 37 36 34 33 34 36 35 33
6 6 11 11 12 13 13 12 14 15 15 15 15 16 17 17 16 16 16 18 22 21 20 16 17 19 25 31 34 36 39 37 28 14 41 41 37 37 35 35 35 37 38
5 8 10 11 13 11 11 13 14 14 15 14 14 15 15 16 16 19 16 16 19 16 16 15 15 18 24 29 31 35 37 39 22 5 41 40 40 39 38 38 37 32 35
6 8 11 10 12 13 13 12 13 15 14 13 13 14 17 13 17 19 15 16 16 15 14 14 15 16 22 27 31 33 34 38 14 3 34 39 42 38 39 38 39 36 38
Wind_Direction
220 231 235 258 267 275 283 288 289 289 296 298 301 300 297 295 295 294 295 294 294 295 301 297 294 288 277 272 265 250 240 240 240 256 255 256 181 178 176 181 186 189 196
223 228 241 256 269 278 283 288 293 294 301 302 301 299 298 296 298 293 291 292 292 300 302 301 292 290 277 261 263 238 240 244 236 249 251 255 181 179 173 175 181 192 197
222 225 239 258 271 280 286 288 293 298 298 298 298 301 301 297 294 291 291 290 295 299 292 306 302 303 295 264 260 257 256 252 215 233 269 262 185 174 167 175 172 182 199
219 229 242 259 270 278 283 289 293 294 296 299 304 301 298 296 295 296 293 292 299 298 293 308 306 299 300 282 262 252 248 206 219 224 250 261 170 167 167 164 171 176 178
211 229 243 257 267 277 284 289 291 293 298 303 303 299 300 301 297 298 299 304 302 296 301 312 308 307 313 307 293 235 229 216 216 232 249 231 163 162 170 169 169 168 172
218 236 249 258 270 277 283 286 294 302 306 306 301 305 303 306 303 303 304 302 303 303 306 316 311 312 317 321 302 237 218 212 209 224 259 222 165 166 168 169 167 164 159
224 237 256 268 272 281 285 297 303 310 311 306 304 306 306 303 305 304 304 305 304 308 304 309 309 314 314 313 311 286 224 220 219 220 274 172 171 170 168 170 172 173 171
227 248 260 268 278 286 301 304 308 308 306 306 306 304 305 305 304 307 308 305 308 308 308 304 305 313 314 320 321 288 275 234 228 222 226 257 187 177 172 173 173 166 150
237 253 260 270 286 302 305 306 306 305 306 305 304 305 304 303 306 307 307 310 310 307 307 310 312 308 310 311 310 305 281 228 232 227 239 241 200 182 174 168 170 153 150
237 250 257 277 291 295 297 299 300 303 306 305 304 306 306 308 318 316 312 309 310 305 310 314 310 312 310 311 307 297 282 212 193 204 226 236 205 184 178 173 166 164 157
239 248 267 277 289 293 295 298 302 306 308 304 310 312 313 328 318 317 320 320 313 322 323 317 312 313 312 312 310 302 300 198 190 205 227 217 185 185 180 176 175 168 164
239 248 265 280 287 286 293 298 303 306 302 305 310 313 316 312 308 313 314 311 320 327 318 313 309 312 315 318 320 318 303 194 182 200 226 180 178 184 181 178 176 175 173
242 262 276 279 283 290 292 298 300 309 307 319 316 323 315 310 310 311 315 317 319 318 314 311 314 317 324 325 324 323 282 192 195 203 211 170 180 177 176 173 173 169 171
254 269 281 287 288 289 289 297 301 298 326 327 319 311 307 306 306 312 315 316 317 316 314 315 316 323 325 324 329 333 295 208 195 201 179 170 174 170 173 169 158 158 156
270 281 284 287 293 294 297 296 298 290 321 317 302 295 299 301 304 311 311 312 314 310 314 315 328 330 332 333 334 338 337 208 188 193 171 167 169 170 170 164 159 153 155
265 278 288 290 294 298 300 298 290 301 313 303 296 292 297 299 302 309 312 312 310 311 315 326 329 331 328 326 327 326 329 250 196 188 178 167 168 168 164 160 158 155 153
266 278 289 293 295 290 289 309 327 312 306 303 300 298 296 298 301 315 315 314 312 314 313 329 327 328 325 324 327 326 318 312 196 184 170 168 166 164 164 160 159 153 155
275 284 290 288 288 301 320 316 307 299 303 304 303 305 305 300 316 316 318 322 317 325 322 324 328 327 327 327 325 326 320 320 212 169 166 166 164 162 166 160 159 156 155
292 292 289 293 301 300 303 301 295 298 296 306 309 308 309 307 316 318 322 320 312 314 320 315 333 334 328 328 327 329 326 321 295 162 162 166 163 163 164 160 158 157 155
288 285 296 313 312 304 297 291 295 295 310 309 307 311 311 309 309 321 323 320 312 316 322 320 339 339 334 333 330 332 338 337 239 156 155 165 163 162 161 159 157 156 160
303 325 318 304 302 298 296 299 309 304 295 292 294 298 307 310 300 312 314 314 313 318 323 319 337 343 338 334 332 335 340 337 329 163 163 159 162 161 162 161 159 162 155
309 296 296 295 307 327 320 305 296 300 299 305 301 304 307 307 304 306 308 306 308 319 322 322 336 340 339 335 331 334 336 337 329 188 170 167 166 160 160 159 156 158 155
292 311 320 335 328 318 309 306 308 293 297 297 304 310 309 307 310 302 312 304 311 316 320 325 338 341 343 340 340 338 334 334 332 274 172 168 169 163 158 158 157 155 157
320 337 332 329 320 312 311 312 304 299 297 292 297 299 301 305 310 315 313 307 318 314 324 330 342 345 344 342 341 343 345 344 336 292 181 166 166 164 161 161 162 165 160
356 344 333 320 306 304 310 313 308 300 297 297 299 306 314 317 316 321 316 310 319 317 330 336 346 355 349 343 340 343 345 348 333 243 173 169 168 167 166 164 165 167 162
345 336 328 318 320 317 311 304 306 303 293 295 304 308 316 310 316 316 313 320 330 327 332 338 344 354 350 345 343 343 348 351 340 218 171 166 164 166 165 166 162 161 161